This is the latest recevied weather packets stored in our database for station/object K6CEG. If no packets are shown the sender has not sent any weather packets the latest 10 day(s).
| Time | Temp. | Humidity | Pressure | Rain* | Wind** | Luminosity | Snow |
|---|---|---|---|---|---|---|---|
| 1788496139 | 19.44° C | 70% | 1014 hPa | 0 mm | - | 0 W/m² | - |
| 1788495835 | 19.44° C | 70% | 1014.2 hPa | 0 mm | - | 0 W/m² | - |
| 1788495529 | 20° C | 70% | 1014.2 hPa | 0 mm | - | 0 W/m² | - |
| 1788495226 | 20° C | 70% | 1013.8 hPa | 0 mm | - | 0 W/m² | - |
| 1788494922 | 20° C | 70% | 1013.9 hPa | 0 mm | - | 0 W/m² | - |
| 1788494617 | 20° C | 69% | 1014 hPa | 0 mm | - | 0 W/m² | - |
| 1788494313 | 20.56° C | 69% | 1013.9 hPa | 0 mm | - | 0 W/m² | - |
| 1788494009 | 20.56° C | 69% | 1013.9 hPa | 0 mm | - | 0 W/m² | - |
| 1788493707 | 20.56° C | 69% | 1014 hPa | 0 mm | - | 0 W/m² | - |
| 1788493403 | 20.56° C | 68% | 1014 hPa | 0 mm | - | 0 W/m² | - |
| 1788493099 | 20.56° C | 68% | 1013.7 hPa | 0 mm | - | 0 W/m² | - |
| 1788492795 | 21.11° C | 67% | 1013.6 hPa | 0 mm | - | 0 W/m² | - |
| 1788492491 | 21.11° C | 66% | 1013.7 hPa | 0 mm | - | 0 W/m² | - |
| 1788492190 | 21.67° C | 64% | 1013.7 hPa | 0 mm | - | 0 W/m² | - |
| 1788491885 | 21.67° C | 63% | 1013.7 hPa | 0 mm | - | 0 W/m² | - |
| 1788491580 | 21.67° C | 62% | 1013.6 hPa | 0 mm | - | 0 W/m² | - |
| 1788491276 | 22.22° C | 62% | 1013.5 hPa | 0 mm | - | 0 W/m² | - |
| 1788490971 | 22.22° C | 61% | 1013.7 hPa | 0 mm | - | 0 W/m² | - |
| 1788490668 | 22.22° C | 60% | 1013.4 hPa | 0 mm | - | 0 W/m² | - |
| 1788490363 | 22.22° C | 60% | 1013.5 hPa | 0 mm | - | 0 W/m² | - |
| 1788490058 | 21.67° C | 60% | 1013.3 hPa | 0 mm | - | 0 W/m² | - |
| 1788489753 | 22.22° C | 62% | 1013.4 hPa | 0 mm | - | 0 W/m² | - |
| 1788489450 | 22.22° C | 61% | 1013.2 hPa | 0 mm | - | 0 W/m² | - |
| 1788489145 | 22.78° C | 60% | 1013.5 hPa | 0 mm | - | 0 W/m² | - |
| 1788488844 | 22.78° C | 57% | 1013.1 hPa | 0 mm | - | 0 W/m² | - |
* Rain latest hour (hover to see other rain measurements)
** Current wind speed in m/s (hover to see current wind gust speed)